Time,TemperatureF,DewpointF,PressureIn,WindDirection,WindDirectionDegrees,WindSpeedMPH,WindSpeedGustMPH,Humidity,HourlyPrecipIn,Conditions,Clouds,dailyrainin,SoftwareType,DateUTC
2017-02-24 00:04:00,46.0,44.1,29.91,SSE,155,0.0,0.0,93,0.00,,,0.00,meteobridge,2017-02-24 05:04:00,
2017-02-24 00:10:00,45.5,43.5,29.92,SE,135,0.0,1.0,93,0.00,,,0.00,meteobridge,2017-02-24 05:10:00,
2017-02-24 00:12:00,45.3,43.3,29.91,SE,135,0.0,0.0,93,0.00,,,0.00,meteobridge,2017-02-24 05:12:00,
2017-02-24 00:17:00,45.0,43.0,29.92,SE,135,0.0,0.0,93,0.00,,,0.00,meteobridge,2017-02-24 05:17:00,
2017-02-24 00:22:00,44.6,42.6,29.92,SSE,158,0.0,1.0,93,0.00,,,0.00,meteobridge,2017-02-24 05:22:00,
2017-02-24 00:27:00,44.8,42.8,29.92,SSE,156,0.0,0.0,93,0.00,,,0.00,meteobridge,2017-02-24 05:27:00,
2017-02-24 00:32:00,45.0,43.0,29.92,SSE,153,0.9,1.0,93,0.00,,,0.00,meteobridge,2017-02-24 05:32:00,
2017-02-24 00:37:00,45.3,43.3,29.92,SSE,155,0.0,0.0,93,0.00,,,0.00,meteobridge,2017-02-24 05:37:00,
2017-02-24 00:42:00,45.1,43.2,29.92,SSE,155,0.0,0.0,93,0.00,,,0.00,meteobridge,2017-02-24 05:42:00,
2017-02-24 00:47:00,44.4,42.4,29.92,SSE,153,0.0,0.0,93,0.00,,,0.00,meteobridge,2017-02-24 05:47:00,
2017-02-24 00:52:00,44.2,42.3,29.92,WSW,245,0.0,0.0,93,0.00,,,0.00,meteobridge,2017-02-24 05:52:00,
2017-02-24 00:57:00,44.1,42.1,29.92,WSW,244,0.0,0.0,93,0.00,,,0.00,meteobridge,2017-02-24 05:57:00,
2017-02-24 01:02:00,43.7,41.7,29.92,WSW,245,0.0,0.0,93,0.00,,,0.00,meteobridge,2017-02-24 06:02:00,
2017-02-24 01:07:00,43.5,41.7,29.92,SE,142,0.0,1.0,93,0.00,,,0.00,meteobridge,2017-02-24 06:07:00,
2017-02-24 01:12:00,44.1,42.1,29.92,ESE,121,0.0,0.0,93,0.00,,,0.00,meteobridge,2017-02-24 06:12:00,
2017-02-24 01:17:00,44.4,42.4,29.92,SE,143,0.0,1.0,93,0.00,,,0.00,meteobridge,2017-02-24 06:17:00,
2017-02-24 01:22:00,44.8,42.8,29.92,SE,129,0.9,2.0,93,0.00,,,0.00,meteobridge,2017-02-24 06:22:00,
2017-02-24 01:27:00,44.8,42.8,29.92,SE,145,0.0,0.0,93,0.00,,,0.00,meteobridge,2017-02-24 06:27:00,
2017-02-24 01:32:00,44.2,42.3,29.92,SE,145,0.0,0.0,93,0.00,,,0.00,meteobridge,2017-02-24 06:32:00,
2017-02-24 01:37:00,43.9,41.9,29.93,SE,145,0.0,0.0,93,0.00,,,0.00,meteobridge,2017-02-24 06:37:00,
2017-02-24 01:42:00,43.2,41.4,29.93,SE,145,0.0,0.0,93,0.00,,,0.00,meteobridge,2017-02-24 06:42:00,
2017-02-24 01:47:00,42.8,41.0,29.93,SE,145,0.0,0.0,93,0.00,,,0.00,meteobridge,2017-02-24 06:47:00,
2017-02-24 01:52:00,43.2,41.4,29.93,SE,135,0.0,1.0,93,0.00,,,0.00,meteobridge,2017-02-24 06:52:00,
2017-02-24 01:57:00,44.2,42.3,29.92,ESE,117,0.9,2.0,93,0.00,,,0.00,meteobridge,2017-02-24 06:57:00,
2017-02-24 02:02:00,44.6,42.6,29.93,SE,143,0.0,0.0,93,0.00,,,0.00,meteobridge,2017-02-24 07:02:00,
2017-02-24 02:07:00,44.1,42.1,29.93,SE,143,0.0,0.0,93,0.00,,,0.00,meteobridge,2017-02-24 07:07:00,
2017-02-24 02:12:00,44.1,42.1,29.92,SSW,211,2.0,3.0,93,0.00,,,0.00,meteobridge,2017-02-24 07:12:00,
2017-02-24 02:17:00,45.0,43.0,29.92,SSW,197,4.0,6.0,93,0.00,,,0.00,meteobridge,2017-02-24 07:17:00,
2017-02-24 02:23:00,45.7,43.7,29.92,SW,224,2.0,2.0,93,0.00,,,0.00,meteobridge,2017-02-24 07:23:00,
2017-02-24 02:28:00,45.7,43.7,29.92,SW,232,0.0,0.0,93,0.00,,,0.00,meteobridge,2017-02-24 07:28:00,
2017-02-24 02:33:00,44.4,42.4,29.92,SW,231,0.0,0.0,93,0.00,,,0.00,meteobridge,2017-02-24 07:33:00,
2017-02-24 02:38:00,43.9,41.9,29.92,SSE,153,0.0,1.0,93,0.00,,,0.00,meteobridge,2017-02-24 07:38:00,
2017-02-24 02:43:00,44.4,42.4,29.92,SE,146,0.0,2.0,93,0.00,,,0.00,meteobridge,2017-02-24 07:43:00,
2017-02-24 02:48:00,45.3,43.3,29.92,SSE,166,0.0,0.0,93,0.00,,,0.00,meteobridge,2017-02-24 07:48:00,
2017-02-24 02:53:00,45.1,43.2,29.92,ESE,115,0.0,0.0,93,0.00,,,0.00,meteobridge,2017-02-24 07:53:00,
2017-02-24 02:58:00,45.5,43.5,29.92,SSW,194,0.0,2.0,93,0.00,,,0.00,meteobridge,2017-02-24 07:58:00,
2017-02-24 03:03:00,45.1,43.2,29.92,SW,233,0.0,0.0,93,0.00,,,0.00,meteobridge,2017-02-24 08:03:00,
2017-02-24 03:08:00,44.2,42.3,29.93,SW,233,0.0,0.0,93,0.00,,,0.00,meteobridge,2017-02-24 08:08:00,
2017-02-24 03:13:00,43.9,41.9,29.93,SW,232,0.0,1.0,93,0.00,,,0.00,meteobridge,2017-02-24 08:13:00,
2017-02-24 03:18:00,43.7,41.7,29.93,NNE,26,0.9,1.0,93,0.00,,,0.00,meteobridge,2017-02-24 08:18:00,
2017-02-24 03:23:00,43.9,41.9,29.93,NNE,26,0.0,0.0,93,0.00,,,0.00,meteobridge,2017-02-24 08:23:00,
2017-02-24 03:28:00,43.9,41.9,29.93,NE,40,0.0,0.0,93,0.00,,,0.00,meteobridge,2017-02-24 08:28:00,
2017-02-24 03:33:00,43.9,41.9,29.93,SE,134,0.0,1.0,93,0.00,,,0.00,meteobridge,2017-02-24 08:33:00,
2017-02-24 03:38:00,44.1,42.1,29.93,SE,134,0.0,1.0,93,0.00,,,0.00,meteobridge,2017-02-24 08:38:00,
2017-02-24 03:43:00,44.4,42.4,29.93,SE,131,0.9,1.0,93,0.00,,,0.00,meteobridge,2017-02-24 08:43:00,
2017-02-24 03:48:00,44.6,42.6,29.93,SE,132,0.0,0.0,93,0.00,,,0.00,meteobridge,2017-02-24 08:48:00,
2017-02-24 03:53:00,44.4,42.4,29.93,SE,132,0.0,0.0,93,0.00,,,0.00,meteobridge,2017-02-24 08:53:00,
2017-02-24 03:58:00,44.1,42.1,29.93,SE,132,0.0,1.0,93,0.00,,,0.00,meteobridge,2017-02-24 08:58:00,
2017-02-24 04:03:00,44.1,42.1,29.93,SE,141,0.0,1.0,93,0.00,,,0.00,meteobridge,2017-02-24 09:03:00,
2017-02-24 04:08:00,44.1,42.1,29.93,SE,141,0.0,0.0,93,0.00,,,0.00,meteobridge,2017-02-24 09:08:00,
2017-02-24 04:13:00,43.7,41.7,29.93,SE,141,0.0,0.0,93,0.00,,,0.00,meteobridge,2017-02-24 09:13:00,
2017-02-24 04:18:00,43.3,41.5,29.93,SE,141,0.0,0.0,93,0.00,,,0.00,meteobridge,2017-02-24 09:18:00,
2017-02-24 04:23:00,43.2,41.4,29.93,SSE,148,0.0,1.0,93,0.00,,,0.00,meteobridge,2017-02-24 09:23:00,
2017-02-24 04:29:00,43.7,41.7,29.94,SSE,160,0.0,0.0,93,0.00,,,0.00,meteobridge,2017-02-24 09:29:00,
2017-02-24 04:34:00,43.9,41.9,29.94,SSE,159,0.0,0.0,93,0.00,,,0.00,meteobridge,2017-02-24 09:34:00,
2017-02-24 04:39:00,43.2,41.4,29.94,SSE,159,0.0,0.0,93,0.00,,,0.00,meteobridge,2017-02-24 09:39:00,
2017-02-24 04:44:00,42.8,41.0,29.94,SSE,159,0.0,0.0,93,0.00,,,0.00,meteobridge,2017-02-24 09:44:00,
2017-02-24 04:49:00,42.8,41.0,29.95,SSE,160,0.0,1.0,93,0.00,,,0.00,meteobridge,2017-02-24 09:49:00,
2017-02-24 04:54:00,43.2,41.4,29.94,SSE,159,0.0,0.0,93,0.00,,,0.00,meteobridge,2017-02-24 09:54:00,
2017-02-24 04:59:00,43.3,41.5,29.95,SE,140,0.0,1.0,93,0.00,,,0.00,meteobridge,2017-02-24 09:59:00,
2017-02-24 05:04:00,43.5,41.7,29.95,SE,138,0.0,0.0,93,0.00,,,0.00,meteobridge,2017-02-24 10:04:00,
2017-02-24 05:09:00,43.3,41.5,29.95,SE,138,0.0,0.0,93,0.00,,,0.00,meteobridge,2017-02-24 10:09:00,
2017-02-24 05:14:00,43.2,41.4,29.95,SSE,150,0.0,0.0,93,0.00,,,0.00,meteobridge,2017-02-24 10:14:00,
2017-02-24 05:19:00,43.3,41.5,29.95,SSE,149,0.0,0.0,93,0.00,,,0.00,meteobridge,2017-02-24 10:19:00,
2017-02-24 05:24:00,43.2,41.4,29.95,SSE,149,0.0,0.0,93,0.00,,,0.00,meteobridge,2017-02-24 10:24:00,
2017-02-24 05:29:00,43.0,41.2,29.95,SSE,149,0.0,0.0,93,0.00,,,0.00,meteobridge,2017-02-24 10:29:00,
2017-02-24 05:34:00,42.6,40.8,29.95,SSE,148,0.0,0.0,93,0.00,,,0.00,meteobridge,2017-02-24 10:34:00,
2017-02-24 05:39:00,42.6,40.8,29.95,SSE,149,0.0,0.0,93,0.00,,,0.00,meteobridge,2017-02-24 10:39:00,
2017-02-24 05:44:00,42.1,40.3,29.96,ESE,118,0.0,1.0,93,0.00,,,0.00,meteobridge,2017-02-24 10:44:00,
2017-02-24 05:49:00,42.1,40.3,29.96,ENE,76,0.0,0.0,93,0.00,,,0.00,meteobridge,2017-02-24 10:49:00,
2017-02-24 05:54:00,42.1,40.3,29.95,ENE,77,0.0,1.0,93,0.00,,,0.00,meteobridge,2017-02-24 10:54:00,
2017-02-24 05:59:00,42.1,40.3,29.95,ESE,117,0.9,1.0,93,0.00,,,0.00,meteobridge,2017-02-24 10:59:00,